Location: Lake Sonoma
(38.7200°N, 123.0564°W)
Time: 12:53:07
(UTC-07:00)

Amateur Radio Satellites - All Passes

Search period start: 19 September 2014 12:23
Search period end: 20 September 2014 12:23
Location: Lake Sonoma, 38.7200°N, 123.0564°W

Satellite Date Start Highest point End Downlink Frequencies (MHz)
Time Altitude Azimuth
PCSat 19 Sep 12:26:47 12:32:04 58° 114° (ESE) 12:37:23 145.825 MHz
Oscar 16 19 Sep 12:38:22 12:41:24 16° 62° (ENE) 12:44:27 437.025 USB, Beacon 2401.1428
JAS-1B 19 Sep 13:01:35 13:07:45 24° 63° (ENE) 13:13:14 435.800 - 435.900 CW/SSB
ITAMSAT 1 19 Sep 13:21:14 13:24:25 17° 63° (ENE) 13:27:36 435.822 SSB
Uribyol 2 19 Sep 13:25:00 13:28:35 19° 64° (ENE) 13:32:11 436.500 FM
Oscar 19 19 Sep 13:36:21 13:41:24 53° 72° (ENE) 13:46:27 437.125 CW, 437.150 USB
Sapphire 19 Sep 13:43:32 13:48:28 35° 306° (NW) 13:53:26 437.095 MHz 1200 baud AX-25 AFSK
AO-27 19 Sep 13:54:28 13:59:05 34° 69° (ENE) 14:03:44 436.795 MHz FM
RS-15 19 Sep 14:08:27 14:19:39 87° 60° (ENE) 14:31:20 29.354 - 29.394 USB, Beacon 29.352 USB
PCSat 19 Sep 14:11:48 14:15:52 21° 312° (NW) 14:19:57 145.825 MHz
Oscar 16 19 Sep 14:15:03 14:20:11 63° 259° (WSW) 14:25:22 437.025 USB, Beacon 2401.1428
AO-Echo 19 Sep 14:29:27 14:34:13 84° 76° (ENE) 14:38:56 ?
Gurwin Techsat 1B 19 Sep 14:45:54 14:50:59 49° 72° (ENE) 14:56:05 435.225 FM
JAS-1B 19 Sep 14:49:03 14:57:52 72° 257° (WSW) 15:05:15 435.800 - 435.900 CW/SSB
ITAMSAT 1 19 Sep 14:58:19 15:03:23 59° 259° (W) 15:08:31 435.822 SSB
Uribyol 2 19 Sep 15:02:39 15:07:39 50° 260° (W) 15:12:41 436.500 FM
Oscar 19 19 Sep 15:17:42 15:21:02 17° 268° (W) 15:24:23 437.125 CW, 437.150 USB
TMSAT-1 19 Sep 15:22:46 15:28:03 80° 75° (ENE) 15:33:21 436.925 FM
AO-7 19 Sep 15:25:46 15:32:57 34° 60° (ENE) 15:40:07 29.400 - 29.500 MHz
AO-27 19 Sep 15:34:17 15:38:36 27° 264° (W) 15:42:57 436.795 MHz FM
Uosat F 19 Sep 15:40:43 15:44:19 20° 65° (ENE) 15:47:55 435.120 FM
RS-15 19 Sep 16:22:47 16:30:38 23° 259° (WSW) 16:38:44 29.354 - 29.394 USB, Beacon 29.352 USB
Gurwin Techsat 1B 19 Sep 16:27:27 16:31:11 19° 267° (W) 16:34:56 435.225 FM
Saudisat 1A 19 Sep 16:43:22 16:46:39 21° 111° (ESE) 16:49:56 436.775 MHz
OPAL 19 Sep 16:44:24 16:46:17 12° 92° (E) 16:48:10 ?
JAS-1B 19 Sep 16:46:27 16:49:03 12° 270° (W) 16:51:34 435.800 - 435.900 CW/SSB
TMSAT-1 19 Sep 17:07:01 17:08:32 11° 271° (W) 17:10:04 436.925 FM
AO-7 19 Sep 17:17:17 17:25:21 54° 258° (WSW) 17:33:27 29.400 - 29.500 MHz
MaSat-1 19 Sep 17:17:37 17:18:40 11° 47° (NE) 17:19:41 437.345 MHz
Uosat F 19 Sep 17:18:00 17:22:45 44° 261° (W) 17:27:33 435.120 FM
JAS-2 19 Sep 17:24:13 17:28:36 28° 67° (ENE) 17:32:56 435.800 - 435.900 CW/SSB, 435.910 FM
OPAL 19 Sep 18:20:31 18:25:41 74° 288° (WNW) 18:30:45 ?
Saudisat 1A 19 Sep 18:21:52 18:25:58 38° 307° (NW) 18:30:06 436.775 MHz
Hamsat 19 Sep 18:24:17 18:28:39 84° 258° (WSW) 18:33:02 145.90 MHz
MaSat-1 19 Sep 18:52:18 18:55:56 51° 250° (WSW) 18:59:01 437.345 MHz
STRAND 1 19 Sep 19:02:25 19:06:04 19° 93° (E) 19:09:43 ?
JAS-2 19 Sep 19:09:00 19:13:39 31° 263° (W) 19:18:14 435.800 - 435.900 CW/SSB, 435.910 FM
KITSAT 1 19 Sep 19:24:17 19:32:02 53° 112° (ESE) 19:39:48 435.175 FM
AO-40 19 Sep 19:29:52 01:31:36 43° 183° (S) 07:26:39 Beacon 2401.320
SO-67 19 Sep 19:51:19 19:54:41 52° 260° (W) 19:58:05 435.3500 MHz FM
HO-68 19 Sep 19:58:37 20:03:56 23° 59° (ENE) 20:09:16 435.675 MHz FM
STRAND 1 19 Sep 20:40:34 20:45:27 46° 289° (WNW) 20:50:21 ?
Sapphire 19 Sep 20:49:42 20:53:49 21° 48° (NE) 20:57:54 437.095 MHz 1200 baud AX-25 AFSK
PCSat 19 Sep 21:16:11 21:21:11 36° 54° (NE) 21:26:08 145.825 MHz
KITSAT 1 19 Sep 21:20:20 21:27:40 37° 311° (NW) 21:35:02 435.175 FM
FUNcube-1 19 Sep 21:27:25 21:28:50 11° 62° (ENE) 21:30:15 145.950 - 145.970 MHz USB
Oscar 11 19 Sep 21:34:15 21:38:08 33° 71° (ENE) 21:42:04 145.825 FM, Beacon 2401.500 USB
HO-68 19 Sep 21:43:55 21:51:00 67° 257° (WSW) 21:58:08 435.675 MHz FM
UKube-1 19 Sep 21:50:43 21:55:01 75° 75° (ENE) 21:59:22 145.840 MHz, 145.915 MHz
SO-50 19 Sep 22:16:40 22:20:49 40° 115° (ESE) 22:25:04 436.795 FM
Sapphire 19 Sep 22:32:17 22:37:37 58° 247° (WSW) 22:42:54 437.095 MHz 1200 baud AX-25 AFSK
PCSat 19 Sep 22:59:47 23:04:28 30° 251° (WSW) 23:09:08 145.825 MHz
FUNcube-1 19 Sep 23:00:13 23:04:34 68° 259° (W) 23:09:05 145.950 - 145.970 MHz USB
Oscar 11 19 Sep 23:11:08 23:14:22 20° 266° (W) 23:17:37 145.825 FM, Beacon 2401.500 USB
Oscar 10/S400 19 Sep 23:22:14 00:03:54 59° 200° (SSW) 09:00:56 145.825 - 145.975 CW/USB, Beacon 145.810 USB
KITSAT 1 19 Sep 23:23:46 23:25:55 11° 338° (NNW) 23:28:04 435.175 FM
UOSAT-12 19 Sep 23:53:03 23:57:07 32° 113° (ESE) 00:01:16 437.025 FM, 437.400 FM
SO-50 19 Sep 23:57:55 00:01:31 23° 313° (NW) 00:05:11 436.795 FM
Saudisat 1A 20 Sep 01:11:15 01:13:46 15° 43° (NE) 01:16:17 436.775 MHz
UOSAT-12 20 Sep 01:33:12 01:37:14 29° 311° (NW) 01:41:22 437.025 FM, 437.400 FM
ISS 20 Sep 01:44:57 01:46:50 14° 129° (SE) 01:48:43 145.800 FM
Oscar 19 20 Sep 01:50:12 01:54:03 21° 94° (E) 01:57:52 437.125 CW, 437.150 USB
AO-27 20 Sep 02:10:22 02:12:49 13° 91° (E) 02:15:16 436.795 MHz FM
RS-15 20 Sep 02:27:39 02:30:32 11° 96° (E) 02:33:25 29.354 - 29.394 USB, Beacon 29.352 USB
PANSAT 20 Sep 02:27:57 02:30:15 15° 171° (S) 02:32:34 not established
Oscar 16 20 Sep 02:28:12 02:33:15 51° 100° (E) 02:38:15 437.025 USB, Beacon 2401.1428
JAS-1B 20 Sep 02:37:01 02:41:55 29° 96° (E) 02:46:51 435.800 - 435.900 CW/SSB
AO-Echo 20 Sep 02:37:59 02:42:14 29° 97° (E) 02:46:34 ?
Saudisat 1A 20 Sep 02:49:25 02:53:50 71° 241° (WSW) 02:58:12 436.775 MHz
Gurwin Techsat 1B 20 Sep 03:04:10 03:08:13 22° 94° (E) 03:12:14 435.225 FM
ITAMSAT 1 20 Sep 03:12:28 03:17:35 55° 101° (E) 03:22:42 435.822 SSB
Uribyol 2 20 Sep 03:16:31 03:21:43 65° 102° (ESE) 03:26:54 436.500 FM
KITSAT 1 20 Sep 03:19:18 03:25:28 23° 40° (NE) 03:31:37 435.175 FM
ISS 20 Sep 03:19:56 03:23:12 55° 324° (NW) 03:26:29 145.800 FM
Oscar 19 20 Sep 03:28:41 03:33:34 43° 289° (WNW) 03:38:23 437.125 CW, 437.150 USB
TMSAT-1 20 Sep 03:40:18 03:45:09 35° 97° (E) 03:49:57 436.925 FM
AO-27 20 Sep 03:47:36 03:52:47 68° 286° (WNW) 03:57:57 436.795 MHz FM
OPAL 20 Sep 03:56:55 04:00:43 21° 62° (ENE) 04:04:33 ?
PANSAT 20 Sep 04:07:15 04:09:47 17° 184° (S) 04:12:20 not established
Oscar 16 20 Sep 04:08:38 04:12:10 19° 296° (WNW) 04:15:42 437.025 USB, Beacon 2401.1428
AO-Echo 20 Sep 04:16:47 04:20:55 29° 291° (WNW) 04:25:09 ?
JAS-1B 20 Sep 04:27:37 04:32:39 32° 293° (WNW) 04:37:39 435.800 - 435.900 CW/SSB
RS-15 20 Sep 04:29:44 04:40:39 67° 115° (ESE) 04:51:24 29.354 - 29.394 USB, Beacon 29.352 USB
Gurwin Techsat 1B 20 Sep 04:43:20 04:48:21 44° 289° (WNW) 04:53:20 435.225 FM
ITAMSAT 1 20 Sep 04:53:10 04:56:37 18° 297° (WNW) 05:00:04 435.822 SSB
Uribyol 2 20 Sep 04:57:35 05:00:37 16° 298° (WNW) 05:03:39 436.500 FM
ISS 20 Sep 04:58:47 05:00:31 13° 343° (NNW) 05:02:14 145.800 FM
KITSAT 1 20 Sep 05:13:51 05:21:59 90° 62° (ENE) 05:30:03 435.175 FM
AO-7 20 Sep 05:20:01 05:28:10 58° 103° (ESE) 05:36:17 29.400 - 29.500 MHz
TMSAT-1 20 Sep 05:20:28 05:24:54 28° 293° (WNW) 05:29:19 436.925 FM
Uosat F 20 Sep 05:26:43 05:31:43 62° 102° (ESE) 05:36:41 435.120 FM
OPAL 20 Sep 05:34:15 05:39:13 48° 258° (WSW) 05:44:16 ?
PANSAT 20 Sep 05:49:09 05:49:16 10° 197° (SSW) 05:49:22 not established
Hamsat 20 Sep 06:12:26 06:15:27 19° 93° (E) 06:18:25 145.90 MHz
JAS-2 20 Sep 06:16:51 06:22:23 33° 97° (E) 06:28:29 435.800 - 435.900 CW/SSB, 435.910 FM
STRAND 1 20 Sep 06:17:07 06:21:13 25° 66° (ENE) 06:25:20 ?
RS-15 20 Sep 06:43:44 06:53:41 38° 318° (NW) 07:03:39 29.354 - 29.394 USB, Beacon 29.352 USB
SO-50 20 Sep 06:49:22 06:53:34 29° 50° (NE) 06:57:47 436.795 FM
Uosat F 20 Sep 07:07:06 07:09:57 15° 298° (WNW) 07:12:49 435.120 FM
KITSAT 1 20 Sep 07:11:34 07:16:15 17° 259° (W) 07:20:56 435.175 FM
AO-7 20 Sep 07:13:31 07:20:29 32° 301° (WNW) 07:27:27 29.400 - 29.500 MHz
SO-67 20 Sep 07:18:15 07:19:13 11° 92° (E) 07:20:12 435.3500 MHz FM
Hamsat 20 Sep 07:47:40 07:51:28 33° 289° (WNW) 07:55:14 145.90 MHz
STRAND 1 20 Sep 07:55:34 08:00:12 36° 262° (W) 08:04:53 ?
JAS-2 20 Sep 08:01:50 08:07:24 39° 290° (WNW) 08:13:37 435.800 - 435.900 CW/SSB, 435.910 FM
ISS 20 Sep 08:13:48 08:16:14 19° 24° (NNE) 08:18:40 145.800 FM
UOSAT-12 20 Sep 08:23:55 08:27:38 22° 47° (NE) 08:31:19 437.025 FM, 437.400 FM
SO-50 20 Sep 08:29:47 08:34:09 35° 246° (WSW) 08:38:33 436.795 FM
MaSat-1 20 Sep 08:35:03 08:40:02 73° 112° (ESE) 08:44:59 437.345 MHz
SO-67 20 Sep 08:49:12 08:52:24 35° 286° (WNW) 08:55:34 435.3500 MHz FM
RS-15 20 Sep 09:04:04 09:10:34 17° 351° (N) 09:17:08 29.354 - 29.394 USB, Beacon 29.352 USB
HO-68 20 Sep 09:13:51 09:19:36 25° 95° (E) 09:25:19 435.675 MHz FM
UKube-1 20 Sep 09:41:53 09:44:11 14° 93° (E) 09:46:29 145.840 MHz, 145.915 MHz
ISS 20 Sep 09:49:56 09:53:15 69° 221° (SW) 09:56:32 145.800 FM
UOSAT-12 20 Sep 10:03:30 10:08:00 45° 244° (WSW) 10:12:25 437.025 FM, 437.400 FM
MaSat-1 20 Sep 10:14:17 10:17:15 16° 309° (NW) 10:20:12 437.345 MHz
FUNcube-1 20 Sep 10:51:10 10:55:05 27° 95° (E) 10:58:56 145.950 - 145.970 MHz USB
Oscar 11 20 Sep 10:58:44 11:03:06 81° 103° (ESE) 11:07:25 145.825 FM, Beacon 2401.500 USB
HO-68 20 Sep 11:00:38 11:07:38 58° 291° (WNW) 11:14:37 435.675 MHz FM
UKube-1 20 Sep 11:16:25 11:20:37 47° 288° (WNW) 11:24:47 145.840 MHz, 145.915 MHz
RS-15 20 Sep 11:20:18 11:28:46 24° 28° (NNE) 11:37:23 29.354 - 29.394 USB, Beacon 29.352 USB
Sapphire 20 Sep 11:30:48 11:34:52 22° 106° (ESE) 11:38:57 437.095 MHz 1200 baud AX-25 AFSK
PCSat 20 Sep 11:56:33 12:01:35 41° 111° (ESE) 12:06:39 145.825 MHz
